DateTimeUTC,F1_A11,F1_S11,BsB_S11,BsG_S11,BsR_S11,BbsB_S11,BbsG_S11,BbsR_S11,BaB_A11,BaG_A11,BaR_A11,Tu_S11,T_S11,Uu_S11,U_S11,P_S11,T1_A11
2021-08-15T08:00:00Z,00000200,20000000,,,,,,,-000.07,0000.08,-000.07,18.8,25.2,15.5,10.5,0674.2,30.9
2021-08-15T08:01:00Z,00000200,20000000,,,,,,,-000.10,0000.16,0000.02,18.8,25.2,15.5,10.5,0674.2,30.9
2021-08-15T08:02:00Z,00000200,20000000,,,,,,,0000.23,-000.15,0000.26,18.8,25.2,15.5,10.5,0674.2,30.9
2021-08-15T08:03:00Z,00000200,60000000,,,,,,,0000.38,0000.37,0000.08,18.8,25.2,15.5,10.5,0674.2,30.9
2021-08-15T08:04:00Z,00000200,40000000,0001.18,0000.80,0000.11,0000.48,-000.18,0000.24,-000.09,0000.20,0000.11,18.9,25.0,15.7,10.8,0675.1,30.9
2021-08-15T08:05:00Z,00000200,00000000,0001.32,0000.73,0000.31,0000.02,-000.02,0000.11,0000.66,0000.10,0000.06,19.0,25.0,15.7,10.9,0675.2,30.9
2021-08-15T08:06:00Z,00000200,00000000,0001.33,0000.69,0000.41,0000.50,-000.24,0000.05,0000.01,0000.27,0000.47,19.0,25.0,15.8,10.9,0675.2,30.9
2021-08-15T08:07:00Z,00000200,00000000,0000.83,0000.87,0000.38,0000.13,0000.16,0000.19,0000.44,0000.76,0000.25,19.0,25.0,15.9,11.0,0675.2,30.9
2021-08-15T08:08:00Z,00000200,00000000,0001.62,0001.11,0000.48,0000.26,0000.24,0000.24,0000.30,-000.23,0000.10,19.0,25.0,15.8,10.9,0675.2,30.9
2021-08-15T08:09:00Z,00000200,00000000,0000.96,0001.25,0000.33,0000.74,0000.08,0000.12,0000.30,0000.09,0000.16,19.0,25.0,15.8,11.0,0675.2,30.9
2021-08-15T08:10:00Z,00000200,00000000,0001.00,0000.93,0000.53,0000.43,-000.03,0000.20,-000.01,0000.36,0000.16,19.0,25.0,15.8,10.9,0675.2,30.9
2021-08-15T08:11:00Z,00000200,00000000,0001.25,0000.97,0000.47,0000.00,0000.04,0000.31,0000.25,0000.08,0000.11,19.0,25.0,15.8,11.0,0675.2,30.9
2021-08-15T08:12:00Z,00000200,00000000,0001.54,0000.79,0000.44,-000.09,0000.29,0000.31,0000.59,0000.99,0000.32,19.0,25.0,15.8,10.9,0675.2,30.9
2021-08-15T08:13:00Z,00000200,00000000,0001.30,0000.99,0000.57,0000.53,0000.31,0000.42,0000.30,-000.07,0000.39,19.0,25.0,15.9,11.0,0675.2,30.9
2021-08-15T08:14:00Z,00000200,00000000,0000.72,0001.10,0000.44,-000.12,0000.27,0000.04,0000.15,0000.07,-000.04,19.0,25.0,15.9,11.1,0675.2,30.9
2021-08-15T08:15:00Z,00000200,00000000,0001.19,0001.14,0000.55,0000.41,0000.23,0000.36,-000.05,0000.19,0000.14,19.0,25.0,15.9,11.0,0675.2,30.9
2021-08-15T08:16:00Z,00000200,00000000,0001.77,0001.10,0000.33,0000.25,0000.32,-000.08,0000.34,0000.22,0000.25,19.0,25.0,15.8,11.0,0675.2,30.9
2021-08-15T08:17:00Z,00000200,00000000,0001.94,0001.47,0000.78,0000.39,0000.13,0000.33,0000.13,0000.22,0000.16,19.0,25.0,15.8,10.9,0675.2,30.9
2021-08-15T08:18:00Z,00000200,00000000,0001.60,0001.12,0000.37,0000.40,0000.18,0000.23,0000.77,0000.53,0000.35,19.0,25.0,15.7,10.9,0675.2,30.9
2021-08-15T08:19:00Z,00000200,00000000,0001.74,0001.27,0000.87,0000.69,-000.03,0000.33,0000.03,-000.19,-000.00,19.0,25.0,15.6,10.8,0675.2,30.9
2021-08-15T08:20:00Z,00000200,00000000,0001.30,0001.15,0000.33,-000.22,0000.27,0000.12,0000.40,0000.32,0000.35,19.0,25.0,15.7,10.9,0675.2,30.9
2021-08-15T08:21:00Z,00000200,00000000,0001.66,0001.42,0000.80,-000.14,0000.51,0000.38,-000.11,-000.02,0000.08,19.0,25.0,15.8,11.0,0675.3,30.9
2021-08-15T08:22:00Z,00000200,00000000,0001.59,0001.11,0000.58,0000.66,0000.13,0000.21,0000.42,0000.56,0000.22,19.0,25.0,15.7,10.9,0675.2,30.9
2021-08-15T08:23:00Z,00000200,00000000,0001.51,0001.02,0000.84,0000.27,0000.24,0000.42,0000.47,0000.50,0000.45,19.0,25.0,15.8,10.9,0675.3,30.9
2021-08-15T08:24:00Z,00000200,00000000,0001.78,0001.35,0000.58,0000.43,-000.06,0000.69,-000.01,-000.25,-000.04,19.0,25.0,15.8,11.0,0675.3,30.9
2021-08-15T08:25:00Z,00000200,00000000,0001.41,0001.03,0000.46,-000.00,0000.03,0000.38,0000.17,0000.58,0000.30,19.0,25.0,15.7,10.9,0675.3,30.9
2021-08-15T08:26:00Z,00000200,00000000,0000.86,0000.78,0000.84,-000.08,-000.15,0000.11,0000.47,0000.09,0000.04,19.0,25.0,15.8,11.0,0675.3,30.9
2021-08-15T08:27:00Z,00000200,00000000,0001.67,0001.24,0000.49,0000.82,0000.25,0000.20,0000.02,-000.01,0000.34,19.0,25.0,15.7,10.9,0675.2,30.9
2021-08-15T08:28:00Z,00000200,00000000,0001.76,0000.62,0000.50,0000.45,0000.49,0000.36,0000.53,0000.42,-000.11,19.0,25.0,15.6,10.9,0675.2,30.9
2021-08-15T08:29:00Z,00000200,00000000,0000.88,0000.62,0000.60,0000.22,-000.13,0000.50,-000.17,-000.24,0000.16,19.0,25.0,15.7,10.9,0675.2,30.9
2021-08-15T08:30:00Z,00000200,00000000,0001.83,0000.93,0000.27,0000.18,-000.02,0000.39,0000.29,0000.23,0000.22,19.0,25.0,15.8,11.0,0675.2,30.9
2021-08-15T08:31:00Z,00000200,00000000,0000.83,0001.05,0000.40,0000.35,-000.29,0000.23,0000.20,0000.66,0000.21,19.0,24.9,15.7,10.9,0675.2,30.9
2021-08-15T08:32:00Z,00000200,00000000,0001.51,0000.85,0000.53,0000.72,0000.25,0000.26,0000.04,-000.25,-000.20,19.0,25.0,15.6,10.9,0675.3,30.9
2021-08-15T08:33:00Z,00000200,00000000,0001.12,0001.06,0000.46,-000.24,0000.39,0000.35,0000.49,0000.61,0000.47,19.0,25.0,15.6,10.9,0675.3,30.9
2021-08-15T08:34:00Z,00000200,00000000,0000.74,0000.78,0000.62,0000.26,0000.03,0000.33,0000.29,0000.21,0000.24,19.0,25.0,15.7,10.9,0675.3,30.9
2021-08-15T08:35:00Z,00000200,00000000,0000.52,0001.05,0000.71,0000.26,0000.14,0000.45,0000.06,0000.09,-000.03,19.0,25.0,15.6,10.9,0675.3,30.9
2021-08-15T08:36:00Z,00000200,00000000,0001.92,0000.84,0000.34,0000.66,-000.08,0000.34,-000.11,0000.25,0000.18,19.0,25.0,15.6,10.9,0675.3,30.9
2021-08-15T08:37:00Z,00000200,00000000,0001.34,0000.80,0000.52,0000.81,0000.12,0000.29,0000.53,0000.00,0000.30,19.0,25.0,15.6,10.9,0675.3,30.9
2021-08-15T08:38:00Z,00000200,00000000,0001.26,0001.07,0000.39,-000.18,0000.04,0000.03,0000.47,0000.43,0000.21,19.0,25.0,15.6,10.9,0675.3,30.9
2021-08-15T08:39:00Z,00000200,00000000,0001.22,0001.18,-000.02,0000.19,0000.04,0000.19,0000.21,0000.12,0000.08,19.0,25.0,15.6,10.9,0675.3,30.9
2021-08-15T08:40:00Z,00000200,00000000,0001.01,0000.99,0000.69,0000.55,-000.05,0000.43,-000.26,-000.18,0000.09,19.0,25.0,15.6,10.9,0675.4,30.9
2021-08-15T08:41:00Z,00000200,00000000,0001.06,0000.93,0000.39,0000.75,-000.37,0000.11,0000.40,0000.25,-000.13,19.0,25.0,15.5,10.8,0675.4,30.9
2021-08-15T08:42:00Z,00000200,00000000,0001.27,0000.94,0000.58,0000.39,-000.14,0000.51,0000.05,0000.25,0000.56,19.0,25.0,15.5,10.8,0675.4,30.9
2021-08-15T08:43:00Z,00000200,00000000,0002.15,0001.01,0000.28,0000.66,0000.10,0000.46,0000.29,0000.56,0000.11,19.0,25.0,15.5,10.8,0675.4,30.9
2021-08-15T08:44:00Z,00000200,00000000,0001.67,0001.21,0000.32,0000.56,0000.24,0000.18,0000.09,-000.47,-000.12,19.0,25.0,15.6,10.9,0675.4,30.9
2021-08-15T08:45:00Z,00000200,00000000,0001.33,0000.69,0000.42,0000.11,0000.02,-000.02,0000.28,0000.72,0000.51,19.0,25.0,15.5,10.8,0675.4,30.9
2021-08-15T08:46:00Z,00000200,00000000,0000.23,0000.80,0000.43,0000.28,0000.02,-000.08,0000.37,0000.13,-000.30,19.1,25.0,15.6,10.9,0675.4,30.9
2021-08-15T08:47:00Z,00000200,00000000,0001.39,0000.81,0000.49,0000.68,0000.14,0000.22,0000.07,-000.21,0000.18,19.1,25.0,15.6,10.9,0675.4,30.9
2021-08-15T08:48:00Z,00000200,00000000,0000.93,0000.86,0000.08,-000.05,-000.11,0000.21,0000.24,0000.47,0000.37,19.1,25.0,15.5,10.8,0675.4,30.9
2021-08-15T08:49:00Z,00000200,00000000,0001.25,0000.69,0000.43,0000.17,0000.10,0000.32,0000.05,-000.01,-000.02,19.1,25.0,15.4,10.8,0675.4,30.9
2021-08-15T08:50:00Z,00000200,00000000,0000.66,0001.01,0000.37,-000.15,0000.13,0000.32,-000.22,-000.02,0000.25,19.1,25.0,15.4,10.7,0675.4,30.9
2021-08-15T08:51:00Z,00000200,00000000,0001.15,0000.91,0000.42,0000.73,0000.16,0000.15,0000.35,0000.18,0000.07,19.1,25.0,15.4,10.7,0675.4,30.9
2021-08-15T08:52:00Z,00000200,00000000,0001.43,0000.75,-000.17,-000.17,0000.04,0000.14,0000.07,-000.16,-000.03,19.1,25.0,15.3,10.7,0675.4,30.9
2021-08-15T08:53:00Z,00000200,00000000,0002.13,0000.86,0000.05,0000.65,-000.26,0000.04,0000.01,0000.47,0000.23,19.1,25.0,15.2,10.6,0675.4,30.9
2021-08-15T08:54:00Z,00000200,00000000,0001.18,0000.70,0000.19,0000.36,0000.21,0000.23,0000.16,-000.19,-000.24,19.1,25.0,15.2,10.6,0675.4,30.9
2021-08-15T08:55:00Z,00000200,00000000,0000.72,0000.61,0000.29,0000.81,0000.02,0000.21,0000.39,0000.46,0000.09,19.1,25.0,15.3,10.7,0675.4,30.9
2021-08-15T08:56:00Z,00000200,00000000,0001.09,0000.68,0000.41,0000.01,0000.20,0000.01,-000.45,-000.36,-000.04,19.1,25.0,15.2,10.6,0675.4,30.9
2021-08-15T08:57:00Z,00000200,40000000,,,,,,,0000.31,0000.65,0000.37,19.1,25.0,15.3,10.7,0675.4,30.9
2021-08-15T08:58:00Z,00000200,60000000,,,,,,,-000.05,-000.75,0000.05,18.9,25.1,15.5,10.5,0674.4,30.9
2021-08-15T08:59:00Z,00000200,20000000,,,,,,,-000.16,0000.25,-000.32,18.8,25.2,15.3,10.4,0674.4,30.9
